EDT,Max TemperatureF,Mean TemperatureF,Min TemperatureF,Max Dew PointF,MeanDew PointF,Min DewpointF,Max Humidity, Mean Humidity, Min Humidity, Max Sea Level PressureIn, Mean Sea Level PressureIn, Min Sea Level PressureIn, Max VisibilityMiles, Mean VisibilityMiles, Min VisibilityMiles, Max Wind SpeedMPH, Mean Wind SpeedMPH, Max Gust SpeedMPH,PrecipitationIn, CloudCover, Events, WindDirDegrees
2012-10-1,70,60,49,52,48,46,86,79,72,29.96,29.82,29.73,10,10,10,18,9,24,0.00,4,,226
2012-10-2,66,61,55,58,55,50,96,87,65,30.04,30.02,29.95,10,6,2,10,3,13,0.45,8,Rain,181
2012-10-3,68,64,59,64,61,57,100,92,79,30.13,30.07,30.02,7,3,1,7,4,9,0.05,8,Rain,352
2012-10-4,67,65,62,64,63,62,100,94,87,30.15,30.09,30.03,10,2,0,7,3,9,0.49,8,Fog-Rain,337
2012-10-5,78,65,52,61,55,51,90,65,39,30.05,30.01,29.91,10,5,0,10,4,16,0.00,2,Fog,182
2012-10-6,78,64,49,61,53,40,97,74,50,29.96,29.83,29.70,10,7,0,24,7,31,0.00,4,Fog,226
2012-10-7,55,47,39,47,40,36,93,72,51,30.09,30.04,29.97,10,10,7,12,3,17,0.11,6,Rain,241
2012-10-8,56,47,37,45,41,38,100,78,55,30.29,30.20,30.08,10,10,7,9,2,13,0.00,6,Fog-Rain,280
2012-10-9,58,52,46,52,47,43,93,83,72,30.27,30.20,30.12,10,9,2,12,6,15,T,7,Rain,6
2012-10-10,63,56,48,57,50,39,93,78,63,30.12,29.91,29.76,10,6,1,23,7,30,0.28,7,Rain,323
2012-10-11,59,49,39,38,34,30,76,56,36,30.14,30.07,29.89,10,10,10,23,8,29,0.00,1,,252
2012-10-12,57,45,33,39,32,21,79,57,35,30.40,30.15,30.02,10,10,10,21,7,28,0.01,3,Rain,295
2012-10-13,55,41,27,34,24,19,92,59,26,30.50,30.41,30.29,10,10,10,13,4,17,0.00,3,,227
2012-10-14,69,58,46,55,48,36,84,67,49,30.26,30.08,29.94,10,10,10,18,10,24,0.07,6,Rain,188
2012-10-15,73,66,58,62,58,55,90,74,57,29.91,29.71,29.62,10,9,2,20,10,24,0.50,7,Rain,200
2012-10-16,58,47,36,53,37,32,86,63,39,29.91,29.74,29.62,10,10,10,28,10,36,0.00,3,,314
2012-10-17,61,47,33,40,34,30,89,63,36,30.00,29.95,29.91,10,10,10,8,2,9,0.00,4,,153
2012-10-18,68,53,37,49,43,36,92,69,45,30.08,30.04,30.00,10,10,9,15,4,17,0.00,4,,157
2012-10-19,66,60,54,64,60,49,100,92,83,30.02,29.83,29.70,10,4,1,17,7,23,1.20,8,Rain,131
2012-10-20,75,63,51,64,56,38,93,61,29,29.78,29.67,29.60,10,6,1,22,8,25,T,4,Fog-Rain,197
2012-10-21,66,54,42,41,38,35,83,59,34,29.94,29.88,29.79,10,10,10,22,9,28,0.00,3,,264
2012-10-22,67,60,52,42,40,37,68,51,34,30.04,29.98,29.94,10,10,10,22,9,32,0.00,2,,287
2012-10-23,61,52,43,51,44,38,89,70,51,30.12,30.08,30.04,10,10,7,9,2,12,0.04,6,Rain,269
2012-10-24,56,53,50,51,42,36,93,66,41,30.22,30.16,30.12,10,10,9,10,3,12,0.00,8,,15
2012-10-25,62,56,49,47,43,40,77,60,43,30.30,30.25,30.21,10,10,10,8,4,10,0.00,7,,162
2012-10-26,66,60,54,54,51,47,80,74,67,30.25,30.19,30.12,10,10,8,12,3,14,0.00,7,,219
2012-10-27,63,60,56,53,52,52,93,80,67,30.12,30.03,29.98,10,8,6,9,5,12,0.00,8,,8
2012-10-28,57,54,50,50,45,37,83,69,54,29.97,29.89,29.74,10,10,9,21,13,30,T,8,,23
2012-10-29,68,60,51,61,54,46,93,81,68,29.71,29.30,28.99,10,6,2,40,22,62,0.72,8,Rain,52
2012-10-30,66,60,53,54,51,47,93,73,52,29.50,29.40,29.21,10,10,10,33,13,40,0.01,6,Rain,135
2012-10-31,56,51,46,54,42,36,93,72,50,29.56,29.51,29.45,10,10,6,16,8,20,0.07,7,Rain,199